Hailey, ID

11:18 AM MST on December 15, 2017 (GMT -0700)
Friedman Memorial

Weather History for KSUN - December, 2013

Change the Weather History Date:

Friday, December 6, 2013

  Actual Average Record
Temperature  
Mean Temperature 6 °F -  
Max Temperature 12 °F 34 °F 44 °F (1997)
Min Temperature 1 °F 16 °F 1 °F (2005)
Degree Days  
Heating Degree Days 58    
Moisture  
Dew Point 3 °F    
Average Humidity 78    
Maximum Humidity 92    
Minimum Humidity 66    
Precipitation  
Precipitation 0.00 in - - ()
Sea Level Pressure  
Sea Level Pressure 29.94 in    
Wind  
Wind Speed 7 mph (NW)    
Max Wind Speed 13 mph    
Max Gust Speed -    
Visibility 6 miles    
Events Snow    
Averages and records for this station are not official NWS values.
T = Trace of Precipitation, MM = Missing Value Source: NWS Daily Summary

Daily Weather History Graph

Daily Weather History Graph

Search for Another Location

Airport or City:

Trip Planner

Search our weather history database for the weather conditions in past years. The results will help you decide how hot, cold, wet, or windy it might be!

Date:

Astronomy

Dec. 06, 2013 Rise Set
Actual Time 7:55 AM MST 5:00 PM MST
Civil Twilight 7:23 AM MST 5:33 PM MST
Nautical Twilight 6:47 AM MST 6:09 PM MST
Astronomical Twilight 6:12 AM MST 6:43 PM MST
Moon 10:59 AM MST (12/6) 9:42 PM MST (12/6)
Length of Visible Light 10h 09m
Length of Day
9h 05m
Waxing Crescent, 20% of the Moon is Illuminated
Dec 6
Waxing Crescent
Dec 9
First Quarter
Dec 17
Full
Dec 25
Last Quarter
Jan 1
New

Hourly Weather History & Observations

Time (MST) Temp. Windchill Dew Point Humidity Pressure Visibility Wind Dir Wind Speed Gust Speed Precip Events Conditions
4:35 AM 3.2 °F -10.3 °F -0.4 °F 85% 29.97 in 7.0 mi NNW 8.1 mph - N/A   Overcast
4:55 AM 3.2 °F -11.3 °F -0.4 °F 85% 29.97 in 10.0 mi NNW 9.2 mph - N/A   Overcast
5:15 AM 3.2 °F -11.3 °F -2.2 °F 78% 29.97 in 10.0 mi NNW 9.2 mph - N/A   Overcast
5:35 AM 3.2 °F -12.2 °F -2.2 °F 78% 29.96 in 10.0 mi NNW 10.4 mph - N/A   Overcast
5:55 AM 3.2 °F -13.9 °F -4.0 °F 72% 29.97 in 10.0 mi NW 12.7 mph - N/A   Overcast
6:47 AM 1.4 °F -13.5 °F -5.8 °F 72% 29.98 in 10.0 mi WNW 9.2 mph - N/A   Overcast
7:47 AM 1.4 °F -9.9 °F -5.8 °F 72% 29.98 in 10.0 mi NW 5.8 mph - N/A   Overcast
8:47 AM 1.4 °F -9.9 °F -7.6 °F 66% 30.00 in 6.0 mi WNW 5.8 mph - N/A   Mostly Cloudy
9:47 AM 3.2 °F -11.3 °F -4.0 °F 72% 30.00 in 6.0 mi WNW 9.2 mph - N/A   Haze
10:47 AM 6.8 °F -7.8 °F -2.2 °F 67% 30.01 in 5.0 mi NW 10.4 mph - N/A   Mostly Cloudy
11:10 AM 6.8 °F -6.9 °F -0.4 °F 72% 30.01 in 4.0 mi WNW 9.2 mph - N/A Snow Light Snow
11:47 AM 8.6 °F -2.6 °F 1.4 °F 73% 29.99 in 4.0 mi WNW 6.9 mph - N/A Snow Light Snow
12:47 PM 10.4 °F - 1.4 °F 67% 29.97 in 7.0 mi Calm Calm - N/A   Haze
1:15 PM 10.4 °F - 1.4 °F 67% 29.96 in 3.0 mi Calm Calm - N/A Snow Light Snow
1:47 PM 10.4 °F - 3.2 °F 73% 29.95 in 6.0 mi Calm Calm - N/A Snow Light Snow
2:47 PM 12.2 °F - 3.2 °F 67% 29.93 in 6.0 mi Calm Calm - N/A Snow Light Snow
3:47 PM 12.2 °F 0.7 °F 6.8 °F 79% 29.93 in 3.0 mi ESE 8.1 mph - N/A Snow Light Snow
4:47 PM 10.4 °F 0.8 °F 6.8 °F 85% 29.92 in 7.0 mi SE 5.8 mph - N/A Snow Light Snow
5:47 PM 10.4 °F 0.8 °F 6.8 °F 85% 29.93 in 7.0 mi North 5.8 mph - N/A Snow Light Snow
6:47 PM 10.4 °F - 6.8 °F 85% 29.92 in 7.0 mi Calm Calm - N/A Snow Light Snow
7:47 PM 10.4 °F - 6.8 °F 85% 29.92 in 6.0 mi Calm Calm - N/A Snow Light Snow
9:47 PM 10.4 °F - 6.8 °F 85% 29.90 in 4.0 mi Calm Calm - N/A Snow Light Snow
10:15 PM 12.2 °F - 8.6 °F 85% 29.89 in 1.5 mi Calm Calm - N/A Snow Light Snow
10:35 PM 12.2 °F 4.3 °F 8.6 °F 85% 29.88 in 1.5 mi NW 4.6 mph - N/A Snow Light Snow
10:47 PM 10.4 °F - 8.6 °F 92% 29.87 in 1.0 mi Calm Calm - N/A Snow Light Snow
10:55 PM 12.2 °F 2.9 °F 8.6 °F 85% 29.87 in 2.5 mi WNW 5.8 mph - N/A Snow Light Snow
11:15 PM 12.2 °F 2.9 °F 8.6 °F 85% 29.87 in 3.0 mi NW 5.8 mph - N/A Snow Light Snow
11:35 PM 12.2 °F 1.7 °F 8.6 °F 85% 29.86 in 1.2 mi NW 6.9 mph - N/A Snow Light Snow
11:55 PM 12.2 °F 1.7 °F 8.6 °F 85% 29.85 in 1.8 mi NW 6.9 mph - N/A Snow Light Snow